STARLINK-2314, 47788

Orbit data source: Space-Track

STARLINK-2314, 47788 is a payload satellite owned by SpaceX/Seattle (US) in LEO that was launched on Thu, 11 Mar 2021 UTC via an FALCON 9 launch vehicle from the Air Force Eastern Test Range (AFETR). Payload-class satellites include a variety of spacecraft equipped with specific instruments for various scientific and technological missions. These include communications satellites like Starlink; space stations such as the ISS; scientific satellites like the Hubble; Earth observation satellites from companies like Planet Labs, Umbra, and HawkEye 360; GPS; miniature CubeSats for education and research; and military/defense satellites.

Loading next visibility...
Identifier
47788, 2021-018B
Orbit
LEO
Country
Flag of USUS
Related business
Manufacturer
SpaceX/Seattle
Mission
Partially operational Commercial Communications
Bus & Motor
STARLINK, Unknown motor
Mass
260 kg wet, ~248 kg dry
Launch date (UTC)
2021-03-11 (5 years ago)
Launch vehicle
FALCON 9
Launch site
Air Force Eastern Test Range (AFETR)
Object type
Payload
Rocket body
Debris
Shape & HBR
Box + 1 Pan, 10.1 m
Radar Cross Section
13.562 m², Large (>1 m²)

Expand to show TLE details & history
Last TLE update: 2 days ago

TLE from 2 days ago
0 STARLINK-2314
1 47788U 21018B   26170.95949139  .00037150  00000-0  91531-3 0  9999
2 47788  53.1554 101.1393 0004814  65.2423 294.9082 15.40233793292774
Epoch: 2026-06-19T23:01Z
TLE epoch observation values (Epoch: 2026-06-19T23:01:40.056Z)
Latitude
-0.00005°
Longitude
-152.45862°
Altitude
444.94 km
Speed
7.647 km/s
True Right ascension
06h 44m 33s
True Declination
0° 00' 00"
Sunlit
Object was in daylight at epoch
Visualization orbit readout
Latitude
Unknown
Longitude
Unknown
Altitude
Unknown
Speed
Unknown
Apparent Right ascension
Unknown
Apparent Declination
Unknown
Sunlit
N/A
Visualization observer readout
Local Sidereal Time
21:37:42
Azimuth
Unknown
Elevation
Unknown
Doppler factor
Unknown
Orbital elements
Apogee altitude
448.962 km
Perigee altitude
442.392 km
Semi-major axis
6,823.814 km
Eccentricity
0.00048
Inclination
53.1554°
RAAN
101.1393°
Arg. of periapsis
65.2423°
True anomaly
294.85815°
Mean anomaly
294.9082°
Eccentric anomaly
294.88318°
Mean motion
3.85037 °/min
Orbital period
93.5 mins
BSTAR
0.00091531
Loading maneuver chart data...
Computing Atmospheric mass density...
Loading historical data...
Loading historical data...
Loading historical data...
Loading historical data...
Loading historical data...
Loading historical data...
Loading historical data...

Documentation

Showing up to 5 results
|